Home   Weather   Amsterdam   Past weeks
Flag for Netherlands

Past Weather in Amsterdam, Netherlands — Yesterday and Last 2 Weeks

Now
54 °F

Passing clouds.


Feels Like: 52 °F
Forecast: 58 / 50 °F
Wind: 7 mph from South

Location: Amsterdam Schiphol Airport

Current Time: Oct 16, 2019 at 4:24:28 am

Latest Report: Oct 16, 2019 at 3:25 am


Visibility: N/A

Pressure: 29.74 "Hg

Humidity: 94%

Dew Point: 52 °F

Location of AmsterdamLocation

Past Weather in Amsterdam — Graph

°F

Amsterdam Temperature Yesterday

Maximum temperature yesterday: 63 °F (at 12:25 am)
Minimum temperature yesterday: 55 °F (at 11:25 pm)
Average temperature yesterday: 60 °F

High & Low Weather Summary for the Past Weeks

 TemperatureHumidityPressure
High70 °F (Oct 13, 2:25 pm)100% (Oct 1, 3:55 am)30.07 "Hg (Oct 1, 3:55 am)
Low39 °F (Oct 5, 6:55 am)58% (Oct 2, 11:25 am)29.47 "Hg (Oct 1, 5:55 am)
Average54 °F87%29.78 "Hg
* Reported Oct 1 2:25 am — Oct 16 2:55 am, Amsterdam. Weather by CustomWeather, © 2019

Note: Actual official high and low records may vary slightly from our data, if they occured in-between our weather recording intervals... More about our weather records

Advertising

Amsterdam Weather History for the Previous 24 Hours

Scroll right to see more
 ConditionsComfort  
Time TempWeatherWind HumidityBarometerVisibility
2:55 am
Wed, Oct 16
54 °FPassing clouds.7 mph94%29.74 "HgN/A
2:25 am54 °FPassing clouds.8 mph94%29.74 "HgN/A
1:55 am54 °FPassing clouds.10 mph94%29.74 "HgN/A
1:25 am54 °FPassing clouds.8 mph94%29.74 "HgN/A
12:55 am55 °FPassing clouds.8 mph94%29.74 "HgN/A
12:25 am55 °FPassing clouds.5 mph94%29.74 "HgN/A
11:55 pm
Tue, Oct 15
55 °FSprinkles. Partly cloudy.6 mph94%29.74 "HgN/A
11:25 pm55 °FSprinkles. Partly cloudy.6 mph94%29.74 "HgN/A
10:55 pm57 °FSprinkles. Partly cloudy.10 mph94%29.74 "HgN/A
10:25 pm57 °FPassing clouds.10 mph88%29.74 "HgN/A
9:55 pm57 °FSprinkles. Passing clouds.13 mph94%29.71 "Hg4 mi
9:25 pm57 °FPassing clouds.9 mph94%29.71 "HgN/A
8:55 pm57 °FPassing clouds.7 mph94%29.71 "HgN/A
8:25 pm57 °FSprinkles. Passing clouds.9 mph94%29.71 "Hg5 mi
7:55 pm57 °FPassing clouds.6 mph94%29.71 "HgN/A
7:25 pm57 °FPassing clouds.7 mph94%29.71 "HgN/A
6:55 pm57 °FPassing clouds.6 mph94%29.68 "HgN/A
6:25 pm59 °FPassing clouds.7 mph88%29.68 "HgN/A
5:55 pm59 °FLight rain. Passing clouds.8 mph88%29.68 "HgN/A
5:25 pm59 °FLight rain. Passing clouds.9 mph88%29.68 "HgN/A
4:55 pm59 °FLight rain. Scattered clouds.10 mph82%29.68 "HgN/A
4:25 pm61 °FLight rain. Scattered clouds.13 mph77%29.68 "HgN/A
3:55 pm61 °FScattered clouds.13 mph77%29.68 "HgN/A
3:25 pm61 °FPassing clouds.10 mph83%29.68 "HgN/A
2:55 pm61 °FScattered clouds.9 mph83%29.68 "HgN/A
2:25 pm63 °FScattered clouds.9 mph77%29.68 "HgN/A
1:55 pm61 °FPassing clouds.10 mph83%29.68 "HgN/A
1:25 pm61 °FScattered clouds.14 mph83%29.68 "HgN/A
12:55 pm61 °FScattered clouds.10 mph83%29.68 "HgN/A
12:25 pm61 °FScattered clouds.13 mph83%29.68 "HgN/A
11:55 am61 °FScattered clouds.7 mph88%29.65 "HgN/A
11:25 am61 °FPassing clouds.10 mph88%29.68 "HgN/A
10:55 am61 °FLight rain. Passing clouds.12 mph83%29.68 "HgN/A
10:25 am61 °FPassing clouds.12 mph88%29.68 "HgN/A
9:55 am59 °FPassing clouds.9 mph94%29.65 "HgN/A
9:25 am59 °FPassing clouds.9 mph94%29.65 "HgN/A
8:55 am59 °FLight rain. Passing clouds.8 mph94%29.65 "HgN/A
8:25 am59 °FPassing clouds.7 mph88%29.65 "HgN/A
7:55 am59 °FPassing clouds.8 mph88%29.65 "HgN/A
7:25 am59 °FLight rain. Passing clouds.8 mph88%29.62 "HgN/A
6:55 am59 °FPassing clouds.9 mph88%29.62 "HgN/A
6:25 am59 °FPassing clouds.7 mph88%29.65 "HgN/A
5:55 am59 °FPassing clouds.7 mph88%29.65 "HgN/A
5:25 am59 °FPassing clouds.9 mph88%29.65 "HgN/A
4:55 am61 °FPassing clouds.13 mph83%29.65 "HgN/A
4:25 am61 °FPassing clouds.13 mph83%29.65 "HgN/A
Weather by CustomWeather, © 2019

See weather overview